Date,TemperatureHighF,TemperatureAvgF,TemperatureLowF,DewpointHighF,DewpointAvgF,DewpointLowF,HumidityHigh,HumidityAvg,HumidityLow,PressureMaxIn,PressureMinIn,WindSpeedMaxMPH,WindSpeedAvgMPH,GustSpeedMaxMPH,PrecipitationSumIn
2013-12-1,59.4,39.6,49.3,21.3,-12.7,-99.9,31,18,19,25.63,25.54,10,4,12,0.00
2013-12-2,70.7,15.5,40.3,17.6,-67.3,-99.9,38,6,12,25.54,25.34,13,5,18,0.00
2013-12-3,78.0,46.6,49.6,16.9,-13.7,-99.9,18,10,8,25.34,25.22,21,4,27,0.00
2013-12-4,70.4,51.7,50.2,26.8,5.4,-99.9,37,19,12,25.34,25.19,30,10,38,0.00
2013-12-5,65.8,15.7,44.6,25.5,-63.7,-99.9,39,8,13,25.40,25.25,17,6,24,0.00
2013-12-6,70.9,38.7,37.6,15.8,-8.2,-99.9,33,19,10,25.51,25.40,12,4,16,0.00
2013-12-7,45.2,35.8,34.8,21.1,1.6,-99.9,44,32,21,25.48,25.34,15,6,23,0.00
2013-12-8,67.8,43.5,37.6,11.0,-0.0,-99.9,28,18,10,25.43,25.34,23,6,29,0.00
2013-12-9,70.2,38.7,31.0,15.2,-8.3,-99.9,33,18,10,25.69,25.40,20,6,29,0.00
2013-12-10,62.9,36.2,23.5,7.6,-3.8,-9.1,19,17,11,25.72,25.54,14,6,18,0.00
2013-12-11,68.7,42.7,31.8,10.0,-1.8,-99.9,18,15,10,25.78,25.57,10,4,13,0.00
2013-12-12,44.1,39.5,35.6,32.8,17.8,-99.9,75,50,16,25.78,25.54,11,4,14,0.04
2013-12-13,65.4,45.5,38.5,27.7,20.4,-99.9,61,39,13,25.54,25.40,16,4,24,0.00
2013-12-14,72.4,44.8,38.1,21.1,8.0,-99.9,44,23,10,25.72,25.45,10,4,13,0.00
2013-12-15,66.7,43.5,33.7,12.6,4.4,-1.5,35,21,10,25.72,25.63,10,5,14,0.00
2013-12-16,67.7,46.0,35.0,13.3,3.9,-99.9,31,18,10,25.69,25.60,12,6,15,0.00
2013-12-17,80.3,49.8,39.3,18.6,4.2,-0.2,26,16,9,25.72,25.63,13,5,17,0.00
2013-12-18,67.3,50.0,39.4,10.6,2.7,-2.9,18,14,10,25.63,25.37,10,4,12,0.00
2013-12-19,80.5,54.6,46.3,18.4,4.1,-99.9,16,13,8,25.37,25.19,16,5,23,0.00
2013-12-20,54.9,32.0,39.4,30.5,-32.2,-99.9,68,11,14,25.25,25.07,17,5,22,0.33
2013-12-21,-200.0,0.0,200.0,-99.9,-99.9,-99.9,0,0,100,25.34,25.10,29,11,38,0.05
2013-12-22,-200.0,0.0,200.0,-99.9,-99.9,-99.9,0,0,100,25.63,25.34,8,3,13,0.00
2013-12-23,-200.0,0.0,200.0,-99.9,-99.9,-99.9,0,0,100,25.78,25.63,9,4,13,0.00
2013-12-24,-200.0,0.0,200.0,-99.9,-99.9,-99.9,0,0,100,25.75,25.54,7,3,9,0.00
2013-12-25,-200.0,0.0,200.0,-99.9,-99.9,-99.9,0,0,100,25.75,25.57,23,5,27,0.00
2013-12-26,-200.0,0.0,200.0,-99.9,-99.9,-99.9,0,0,100,25.72,25.60,7,3,20,0.00
2013-12-27,-200.0,0.0,200.0,-99.9,-99.9,-99.9,0,0,100,25.72,25.60,8,3,9,0.00
2013-12-28,-200.0,0.0,200.0,-99.9,-99.9,-99.9,0,0,100,25.60,25.37,9,3,13,0.00
2013-12-29,-200.0,0.0,200.0,-99.9,-99.9,-99.9,0,0,100,25.57,25.37,13,4,17,0.00
2013-12-30,-200.0,0.0,200.0,-99.9,-99.9,-99.9,0,0,100,25.69,25.57,9,4,12,0.00
2013-12-31,-200.0,0.0,200.0,-99.9,-99.9,-99.9,0,0,100,25.69,25.54,8,3,10,0.00